Regional Weather Roundup
Issued by NWS

Home | Current Version | Previous Version | Text Only | Print | Product List | Glossary On
Versions: 1 2 3 4 5 6 7 8 9 10 11 12 13 14 15 16 17 18 19 20 21 22 23 24 25 26 27 28 29 30 31 32 33 34 35 36 37 38 39 40 41 42 43 44 45 46 47 48 49 50
000
ASCA42 TJSJ 220711
RWRPR
PUERTO RICO/U.S. VIRGIN ISLANDS HOURLY WEATHER ROUNDUP
NATIONAL WEATHER SERVICE SAN JUAN PR
300 AM AST MON DEC 22 2014

PRZ001-004-220800-
PUERTO RICO

CITY           SKY/WX    TMP DP  RH WIND       PRES   REMARKS
SAN JUAN LMM   CLEAR     73  70  88 CALM      30.03F
PONCE          CLEAR     64  59  82 CALM      30.00F
AGUADILLA      CLEAR     70  64  83 SE6       30.05S
CEIBA          PTCLDY    73  70  88 NW6       30.04F
$$

PRZ006-007-220800-
U.S. VIRGIN ISLANDS

CITY           SKY/WX    TMP DP  RH WIND       PRES   REMARKS
CHARLOTTE AMA  CLEAR     77  72  83 NE10      30.01
$$

HOURLY WEATHER ROUNDUP FOR THE NEWS MEDIA

CITY           SKY/WX    TMP DP  RH WIND       PRES   REMARKS
MIAMI          PTCLDY    70  65  84 CALM      30.04S
ORLANDO        CLOUDY    66  64  93 CALM      30.05F
NEW YORK       CLOUDY    37  31  78 N6        30.33S WCI  32
NEWARK         CLOUDY    35  30  82 N7        30.33S WCI  29
CHICAGO        MOCLDY    32  27  81 S9        29.98F WCI  24
HARTFORD       CLOUDY    34  32  92 N5        30.33R WCI  30
BOSTON         CLOUDY    33  26  75 NW8       30.37R WCI  26
DALLAS         CLOUDY    54  49  83 S16G26    29.69F
PHILADELPHIA   PTCLDY    28  21  75 NW6       30.35R WCI  22



USA.gov is the U.S. government's official web portal to all federal, state and local government web resources and services.